When you browse on this site, cookies collect data to enhance your experience and personalize the content and advertising you see.
Visit our Privacy Policy to learn more. By continuing to use the site, you agree to this use of cookies and data.
  • In United Kingdom
  • List of Countries
  • For 7 days
  • Water Temperature
  • Satellite Maps
  • Weather Map
  • Weather Widgets
  • user-avatar
    Login

    Hourly Weather Escuintla

    Today, 17 January, Thursday

    Time Temperature Precipitation Wind Pressure Humidity
    00:00 +25°C° 0 mm 3 mps 732 mmHg 62%
    01:00 +25°C° 0 mm 3 mps 732 mmHg 63%
    02:00 +25°C° 0 mm 2 mps 731 mmHg 64%
    03:00 +24°C° 0 mm 2 mps 731 mmHg 65%
    04:00 +24°C° 0 mm 2 mps 731 mmHg 66%
    05:00 +24°C° 0 mm 2 mps 731 mmHg 67%
    06:00 +24°C° 0 mm 2 mps 732 mmHg 66%
    07:00 +26°C° 0 mm 2 mps 732 mmHg 59%
    08:00 +28°C° 0 mm 2 mps 732 mmHg 52%
    09:00 +30°C° 0 mm 2 mps 732 mmHg 45%
    10:00 +32°C° 0 mm 2 mps 732 mmHg 40%
    11:00 +36°C° 0 mm 2 mps 732 mmHg 35%
    12:00 +38°C° 0 mm 2 mps 732 mmHg 30%
    13:00 +37°C° 0 mm 2 mps 732 mmHg 32%
    14:00 +36°C° 0 mm 2 mps 731 mmHg 34%
    15:00 +36°C° 0 mm 3 mps 730 mmHg 36%
    16:00 +32°C° 0.1 mm 2 mps 730 mmHg 48%
    17:00 +29°C° 0.1 mm 2 mps 730 mmHg 60%
    18:00 +27°C° 0.1 mm 1 mps 730 mmHg 72%
    19:00 +26°C° 0 mm 1 mps 731 mmHg 70%
    20:00 +25°C° 0 mm 2 mps 731 mmHg 69%
    21:00 +25°C° 0 mm 2 mps 732 mmHg 67%
    22:00 +25°C° 0 mm 2 mps 731 mmHg 66%
    23:00 +25°C° 0 mm 2 mps 731 mmHg 65%

    Tomorrow, 18 January, Friday

    Time Temperature Precipitation Wind Pressure Humidity
    00:00 +24°C° 0 mm 2 mps 731 mmHg 64%
    01:00 +24°C° 0 mm 2 mps 731 mmHg 64%
    02:00 +24°C° 0 mm 2 mps 731 mmHg 65%
    03:00 +24°C° 0 mm 2 mps 730 mmHg 65%
    04:00 +24°C° 0 mm 2 mps 731 mmHg 65%
    05:00 +24°C° 0 mm 2 mps 731 mmHg 66%
    06:00 +24°C° 0 mm 2 mps 731 mmHg 66%
    07:00 +26°C° 0 mm 2 mps 731 mmHg 58%
    08:00 +28°C° 0 mm 1 mps 732 mmHg 51%
    09:00 +31°C° 0 mm 1 mps 732 mmHg 43%
    10:00 +33°C° 0 mm 1 mps 732 mmHg 38%
    11:00 +36°C° 0 mm 2 mps 732 mmHg 33%
    12:00 +38°C° 0 mm 2 mps 731 mmHg 28%
    13:00 +37°C° 0 mm 2 mps 730 mmHg 31%
    14:00 +36°C° 0 mm 2 mps 730 mmHg 34%
    15:00 +35°C° 0 mm 3 mps 729 mmHg 37%
    16:00 +32°C° 0 mm 2 mps 729 mmHg 47%
    17:00 +29°C° 0 mm 1 mps 729 mmHg 56%
    18:00 +27°C° 0 mm 1 mps 729 mmHg 66%
    19:00 +26°C° 0 mm 1 mps 729 mmHg 68%
    20:00 +25°C° 0 mm 1 mps 730 mmHg 69%
    21:00 +25°C° 0 mm 1 mps 730 mmHg 70%
    22:00 +25°C° 0 mm 1 mps 730 mmHg 69%
    23:00 +24°C° 0 mm 2 mps 730 mmHg 67%

    Day after tomorrow, 19 January, Saturday

    Time Temperature Precipitation Wind Pressure Humidity
    00:00 +24°C° 0 mm 2 mps 730 mmHg 66%
    01:00 +24°C° 0 mm 2 mps 730 mmHg 64%
    02:00 +24°C° 0 mm 2 mps 729 mmHg 63%
    03:00 +24°C° 0 mm 2 mps 729 mmHg 62%
    04:00 +24°C° 0 mm 2 mps 729 mmHg 61%
    05:00 +23°C° 0 mm 2 mps 729 mmHg 61%
    06:00 +23°C° 0 mm 1 mps 729 mmHg 60%
    07:00 +26°C° 0 mm 1 mps 730 mmHg 53%
    08:00 +29°C° 0 mm 1 mps 731 mmHg 45%
    09:00 +32°C° 0 mm 1 mps 731 mmHg 38%
    10:00 +33°C° 0 mm 1 mps 731 mmHg 38%
    11:00 +34°C° 0 mm 2 mps 730 mmHg 37%
    12:00 +35°C° 0 mm 2 mps 730 mmHg 37%
    13:00 +35°C° 0 mm 3 mps 729 mmHg 40%
    14:00 +34°C° 0 mm 3 mps 728 mmHg 43%
    15:00 +34°C° 0 mm 3 mps 727 mmHg 46%
    16:00 +31°C° 0 mm 2 mps 728 mmHg 56%
    17:00 +29°C° 0 mm 1 mps 728 mmHg 66%
    18:00 +26°C° 0 mm 1 mps 728 mmHg 75%
    19:00 +26°C° 0 mm 1 mps 729 mmHg 75%
    20:00 +25°C° 0 mm 1 mps 730 mmHg 75%
    21:00 +25°C° 0 mm 1 mps 730 mmHg 75%
    22:00 +25°C° 0 mm 1 mps 730 mmHg 73%
    23:00 +25°C° 0 mm 2 mps 730 mmHg 70%

    20 January, Sunday

    Time Temperature Precipitation Wind Pressure Humidity
    00:00 +25°C° 0 mm 2 mps 731 mmHg 67%
    01:00 +25°C° 0 mm 2 mps 730 mmHg 66%
    02:00 +25°C° 0 mm 2 mps 730 mmHg 65%
    03:00 +25°C° 0 mm 2 mps 729 mmHg 64%
    04:00 +24°C° 0 mm 2 mps 730 mmHg 64%
    05:00 +24°C° 0 mm 2 mps 730 mmHg 65%
    06:00 +24°C° 0 mm 2 mps 730 mmHg 65%
    07:00 +27°C° 0 mm 2 mps 731 mmHg 58%
    08:00 +29°C° 0 mm 2 mps 732 mmHg 51%
    09:00 +31°C° 0 mm 3 mps 732 mmHg 44%
    10:00 +34°C° 0 mm 3 mps 732 mmHg 40%
    11:00 +35°C° 0 mm 3 mps 732 mmHg 36%
    12:00 +37°C° 0 mm 3 mps 732 mmHg 32%
    13:00 +36°C° 0 mm 3 mps 731 mmHg 34%
    14:00 +35°C° 0 mm 3 mps 731 mmHg 35%
    15:00 +35°C° 0 mm 3 mps 730 mmHg 37%
    16:00 +31°C° 0 mm 3 mps 730 mmHg 43%
    17:00 +29°C° 0 mm 3 mps 730 mmHg 48%
    18:00 +27°C° 0 mm 2 mps 731 mmHg 54%
    19:00 +26°C° 0 mm 3 mps 731 mmHg 56%
    20:00 +25°C° 0 mm 3 mps 731 mmHg 58%
    21:00 +24°C° 0 mm 3 mps 732 mmHg 59%
    22:00 +24°C° 0 mm 3 mps 732 mmHg 59%
    23:00 +24°C° 0 mm 3 mps 732 mmHg 58%

    21 January, Monday

    Time Temperature Precipitation Wind Pressure Humidity
    00:00 +24°C° 0 mm 3 mps 732 mmHg 57%
    01:00 +24°C° 0 mm 3 mps 731 mmHg 58%
    02:00 +22°C° 0 mm 3 mps 731 mmHg 58%
    03:00 +22°C° 0 mm 3 mps 730 mmHg 58%
    04:00 +22°C° 0 mm 3 mps 731 mmHg 59%
    05:00 +22°C° 0 mm 3 mps 731 mmHg 59%
    06:00 +22°C° 0 mm 3 mps 731 mmHg 59%
    07:00 +25°C° 0 mm 3 mps 732 mmHg 53%
    08:00 +27°C° 0 mm 3 mps 732 mmHg 47%
    09:00 +29°C° 0 mm 3 mps 733 mmHg 41%
    10:00 +31°C° 0 mm 2 mps 733 mmHg 35%
    11:00 +35°C° 0 mm 2 mps 733 mmHg 30%
    12:00 +36°C° 0 mm 1 mps 732 mmHg 24%
    13:00 +37°C° 0 mm 2 mps 731 mmHg 26%
    14:00 +36°C° 0 mm 2 mps 731 mmHg 27%
    15:00 +35°C° 0 mm 2 mps 730 mmHg 29%
    16:00 +32°C° 0 mm 2 mps 730 mmHg 39%
    17:00 +29°C° 0 mm 1 mps 730 mmHg 49%
    18:00 +26°C° 0 mm 1 mps 730 mmHg 59%
    19:00 +26°C° 0 mm 1 mps 731 mmHg 60%
    20:00 +25°C° 0 mm 2 mps 731 mmHg 60%
    21:00 +24°C° 0 mm 2 mps 732 mmHg 61%
    22:00 +24°C° 0 mm 2 mps 732 mmHg 60%
    23:00 +24°C° 0 mm 2 mps 732 mmHg 59%

    22 January, Tuesday

    Time Temperature Precipitation Wind Pressure Humidity
    00:00 +24°C° 0 mm 2 mps 731 mmHg 59%
    01:00 +23°C° 0 mm 2 mps 731 mmHg 58%
    02:00 +23°C° 0 mm 2 mps 730 mmHg 57%
    03:00 +23°C° 0 mm 2 mps 730 mmHg 55%
    04:00 +23°C° 0 mm 2 mps 730 mmHg 54%
    05:00 +23°C° 0 mm 2 mps 730 mmHg 52%
    06:00 +23°C° 0 mm 2 mps 730 mmHg 50%
    07:00 +26°C° 0 mm 1 mps 731 mmHg 43%
    08:00 +29°C° 0 mm 1 mps 732 mmHg 37%
    09:00 +30°C° 0 mm 0 mps 732 mmHg 30%
    10:00 +33°C° 0 mm 1 mps 732 mmHg 28%
    11:00 +35°C° 0 mm 2 mps 731 mmHg 26%
    12:00 +36°C° 0 mm 2 mps 731 mmHg 24%
    13:00 +36°C° 0 mm 3 mps 730 mmHg 27%
    14:00 +36°C° 0 mm 3 mps 729 mmHg 29%
    15:00 +35°C° 0 mm 3 mps 728 mmHg 31%
    16:00 +31°C° 0 mm 2 mps 728 mmHg 41%
    17:00 +29°C° 0 mm 1 mps 728 mmHg 51%
    18:00 +26°C° 0 mm 1 mps 729 mmHg 60%
    19:00 +26°C° 0 mm 1 mps 729 mmHg 62%
    20:00 +25°C° 0 mm 1 mps 730 mmHg 63%
    21:00 +24°C° 0 mm 1 mps 730 mmHg 65%
    22:00 +24°C° 0 mm 1 mps 730 mmHg 64%
    23:00 +24°C° 0 mm 1 mps 730 mmHg 62%
    Show more